Time,TemperatureF,DewpointF,PressureIn,WindDirection,WindDirectionDegrees,WindSpeedMPH,WindSpeedGustMPH,Humidity,HourlyPrecipIn,Conditions,Clouds,dailyrainin,SoftwareType,DateUTC
2013-01-22 00:03:00,45.1,38.0,30.27,East,85,0.0,-999.0,77,-99.99,,,0.00,weatherlink.com 1.10,2013-01-22 07:03:00,
2013-01-22 00:18:00,44.2,38.0,30.27,East,85,0.0,-999.0,79,-99.99,,,0.00,weatherlink.com 1.10,2013-01-22 07:18:00,
2013-01-22 00:33:00,43.8,38.0,30.27,East,85,0.0,-999.0,80,-99.99,,,0.00,weatherlink.com 1.10,2013-01-22 07:33:00,
2013-01-22 00:48:00,43.3,38.0,30.27,East,85,0.0,-999.0,80,-99.99,,,0.00,weatherlink.com 1.10,2013-01-22 07:48:00,
2013-01-22 01:03:00,42.6,37.0,30.27,East,85,0.0,-999.0,81,-99.99,,,0.00,weatherlink.com 1.10,2013-01-22 08:03:00,
2013-01-22 01:18:00,42.0,37.0,30.27,East,85,0.0,-999.0,82,-99.99,,,0.00,weatherlink.com 1.10,2013-01-22 08:18:00,
2013-01-22 01:33:00,41.6,37.0,30.28,East,85,0.0,-999.0,82,-99.99,,,0.00,weatherlink.com 1.10,2013-01-22 08:33:00,
2013-01-22 01:48:00,41.2,36.0,30.28,East,85,0.0,-999.0,83,-99.99,,,0.00,weatherlink.com 1.10,2013-01-22 08:48:00,
2013-01-22 02:03:00,40.7,36.0,30.27,East,85,0.0,-999.0,83,-99.99,,,0.00,weatherlink.com 1.10,2013-01-22 09:03:00,
2013-01-22 02:18:00,40.4,36.0,30.28,East,85,0.0,-999.0,83,-99.99,,,0.00,weatherlink.com 1.10,2013-01-22 09:18:00,
2013-01-22 02:33:00,39.9,35.0,30.28,East,85,0.0,-999.0,83,-99.99,,,0.00,weatherlink.com 1.10,2013-01-22 09:33:00,
2013-01-22 02:48:00,39.9,36.0,30.29,East,85,0.0,-999.0,85,-99.99,,,0.00,weatherlink.com 1.10,2013-01-22 09:48:00,
2013-01-22 03:03:00,40.2,36.0,30.29,East,85,0.0,-999.0,85,-99.99,,,0.00,weatherlink.com 1.10,2013-01-22 10:03:00,
2013-01-22 03:18:00,40.9,37.0,30.29,East,85,0.0,-999.0,85,-99.99,,,0.00,weatherlink.com 1.10,2013-01-22 10:18:00,
2013-01-22 03:33:00,41.6,38.0,30.30,East,85,0.0,-999.0,86,-99.99,,,0.00,weatherlink.com 1.10,2013-01-22 10:33:00,
2013-01-22 03:48:00,42.1,38.0,30.30,East,85,0.0,-999.0,85,-99.99,,,0.00,weatherlink.com 1.10,2013-01-22 10:48:00,
2013-01-22 04:03:00,42.7,39.0,30.30,East,85,0.0,-999.0,86,-99.99,,,0.00,weatherlink.com 1.10,2013-01-22 11:03:00,
2013-01-22 04:18:00,43.4,39.0,30.30,East,85,0.0,-999.0,85,-99.99,,,0.00,weatherlink.com 1.10,2013-01-22 11:18:00,
2013-01-22 04:33:00,44.8,40.0,30.30,East,85,0.0,-999.0,82,-99.99,,,0.00,weatherlink.com 1.10,2013-01-22 11:33:00,
2013-01-22 04:48:00,45.9,40.0,30.31,East,85,0.0,-999.0,79,-99.99,,,0.00,weatherlink.com 1.10,2013-01-22 11:48:00,
2013-01-22 05:03:00,46.5,40.0,30.31,East,85,2.0,-999.0,77,-99.99,,,0.00,weatherlink.com 1.10,2013-01-22 12:03:00,
2013-01-22 05:18:00,46.7,39.0,30.31,East,85,0.0,-999.0,75,-99.99,,,0.00,weatherlink.com 1.10,2013-01-22 12:18:00,
2013-01-22 05:33:00,46.7,39.0,30.31,East,85,0.0,-999.0,74,-99.99,,,0.00,weatherlink.com 1.10,2013-01-22 12:33:00,
2013-01-22 05:48:00,46.6,39.0,30.31,East,85,2.0,-999.0,74,-99.99,,,0.00,weatherlink.com 1.10,2013-01-22 12:48:00,
2013-01-22 06:03:00,46.4,39.0,30.32,East,85,0.0,-999.0,74,-99.99,,,0.00,weatherlink.com 1.10,2013-01-22 13:03:00,
2013-01-22 06:18:00,46.2,39.0,30.31,East,85,0.0,-999.0,75,-99.99,,,0.00,weatherlink.com 1.10,2013-01-22 13:18:00,
2013-01-22 06:33:00,45.9,39.0,30.31,East,85,0.0,-999.0,76,-99.99,,,0.00,weatherlink.com 1.10,2013-01-22 13:33:00,
2013-01-22 06:49:00,45.4,38.0,30.31,East,85,0.0,-999.0,76,-99.99,,,0.00,weatherlink.com 1.10,2013-01-22 13:49:00,
2013-01-22 07:03:00,45.2,38.0,30.32,East,85,0.0,-999.0,76,-99.99,,,0.00,weatherlink.com 1.10,2013-01-22 14:03:00,
2013-01-22 07:18:00,45.3,39.0,30.32,East,85,0.0,-999.0,77,-99.99,,,0.00,weatherlink.com 1.10,2013-01-22 14:18:00,
2013-01-22 07:33:00,45.6,38.0,30.32,East,85,0.0,-999.0,76,-99.99,,,0.00,weatherlink.com 1.10,2013-01-22 14:33:00,
2013-01-22 07:48:00,46.3,39.0,30.32,East,85,0.0,-999.0,75,-99.99,,,0.00,weatherlink.com 1.10,2013-01-22 14:48:00,
2013-01-22 08:03:00,47.9,40.0,30.32,East,85,0.0,-999.0,75,-99.99,,,0.00,weatherlink.com 1.10,2013-01-22 15:03:00,
2013-01-22 08:18:00,49.9,42.0,30.33,East,85,0.0,-999.0,73,-99.99,,,0.00,weatherlink.com 1.10,2013-01-22 15:18:00,
2013-01-22 08:33:00,51.8,43.0,30.34,SSW,199,3.0,-999.0,72,-99.99,,,0.00,weatherlink.com 1.10,2013-01-22 15:33:00,
2013-01-22 08:48:00,54.2,44.0,30.34,South,184,1.0,-999.0,68,-99.99,,,0.00,weatherlink.com 1.10,2013-01-22 15:48:00,
2013-01-22 09:03:00,55.5,44.0,30.34,South,186,0.0,-999.0,66,-99.99,,,0.00,weatherlink.com 1.10,2013-01-22 16:03:00,
2013-01-22 09:18:00,56.7,45.0,30.34,SSW,207,4.0,-999.0,65,-99.99,,,0.00,weatherlink.com 1.10,2013-01-22 16:18:00,
2013-01-22 09:33:00,59.0,46.0,30.34,South,172,0.0,-999.0,62,-99.99,,,0.00,weatherlink.com 1.10,2013-01-22 16:33:00,
2013-01-22 09:48:00,61.5,46.0,30.34,South,190,5.0,-999.0,58,-99.99,,,0.00,weatherlink.com 1.10,2013-01-22 16:48:00,
2013-01-22 10:18:00,63.9,48.0,30.34,South,187,4.0,-999.0,56,-99.99,,,0.00,weatherlink.com 1.10,2013-01-22 17:18:00,
2013-01-22 10:33:00,64.0,48.0,30.34,SSE,159,3.0,-999.0,57,-99.99,,,0.00,weatherlink.com 1.10,2013-01-22 17:33:00,
2013-01-22 10:49:00,64.3,48.0,30.33,South,169,2.0,-999.0,56,-99.99,,,0.00,weatherlink.com 1.10,2013-01-22 17:49:00,
2013-01-22 11:04:00,65.2,49.0,30.31,SSW,212,3.0,-999.0,56,-99.99,,,0.00,weatherlink.com 1.10,2013-01-22 18:04:00,
2013-01-22 11:19:00,65.7,49.0,30.30,SW,224,2.0,-999.0,55,-99.99,,,0.00,weatherlink.com 1.10,2013-01-22 18:19:00,
2013-01-22 11:34:00,67.1,50.0,30.29,SSE,163,4.0,-999.0,54,-99.99,,,0.00,weatherlink.com 1.10,2013-01-22 18:34:00,
2013-01-22 11:49:00,68.1,48.0,30.28,South,188,5.0,-999.0,49,-99.99,,,0.00,weatherlink.com 1.10,2013-01-22 18:49:00,
2013-01-22 12:04:00,68.8,48.0,30.27,South,180,4.0,-999.0,48,-99.99,,,0.00,weatherlink.com 1.10,2013-01-22 19:04:00,
2013-01-22 12:18:00,69.2,49.0,30.26,SW,219,2.0,-999.0,48,-99.99,,,0.00,weatherlink.com 1.10,2013-01-22 19:18:00,
2013-01-22 12:33:00,69.5,49.0,30.25,WSW,240,6.0,-999.0,48,-99.99,,,0.00,weatherlink.com 1.10,2013-01-22 19:33:00,
2013-01-22 12:48:00,69.7,48.0,30.25,SW,229,7.0,-999.0,46,-99.99,,,0.00,weatherlink.com 1.10,2013-01-22 19:48:00,
2013-01-22 13:03:00,70.0,45.0,30.25,SSW,212,3.0,-999.0,41,-99.99,,,0.00,weatherlink.com 1.10,2013-01-22 20:03:00,
2013-01-22 13:18:00,69.5,45.0,30.25,South,180,9.0,-999.0,42,-99.99,,,0.00,weatherlink.com 1.10,2013-01-22 20:18:00,
2013-01-22 13:33:00,69.1,46.0,30.24,South,182,2.0,-999.0,44,-99.99,,,0.00,weatherlink.com 1.10,2013-01-22 20:33:00,
2013-01-22 13:48:00,69.4,46.0,30.24,SSW,197,5.0,-999.0,44,-99.99,,,0.00,weatherlink.com 1.10,2013-01-22 20:48:00,
2013-01-22 14:03:00,69.2,47.0,30.24,SSW,192,2.0,-999.0,45,-99.99,,,0.00,weatherlink.com 1.10,2013-01-22 21:03:00,
2013-01-22 14:18:00,68.7,48.0,30.24,WSW,246,4.0,-999.0,47,-99.99,,,0.00,weatherlink.com 1.10,2013-01-22 21:18:00,
2013-01-22 14:33:00,68.0,48.0,30.24,SSE,155,4.0,-999.0,49,-99.99,,,0.00,weatherlink.com 1.10,2013-01-22 21:33:00,
2013-01-22 14:48:00,67.7,48.0,30.24,SSE,164,6.0,-999.0,49,-99.99,,,0.00,weatherlink.com 1.10,2013-01-22 21:48:00,
2013-01-22 15:03:00,67.5,49.0,30.24,SW,217,4.0,-999.0,51,-99.99,,,0.00,weatherlink.com 1.10,2013-01-22 22:03:00,
2013-01-22 15:18:00,67.6,48.0,30.24,South,185,1.0,-999.0,49,-99.99,,,0.00,weatherlink.com 1.10,2013-01-22 22:18:00,
2013-01-22 15:33:00,67.5,48.0,30.24,South,173,1.0,-999.0,50,-99.99,,,0.00,weatherlink.com 1.10,2013-01-22 22:33:00,
2013-01-22 15:48:00,67.2,48.0,30.24,South,191,3.0,-999.0,50,-99.99,,,0.00,weatherlink.com 1.10,2013-01-22 22:48:00,
2013-01-22 16:03:00,66.7,47.0,30.24,West,271,4.0,-999.0,50,-99.99,,,0.00,weatherlink.com 1.10,2013-01-22 23:03:00,
2013-01-22 16:18:00,66.3,47.0,30.24,South,182,3.0,-999.0,51,-99.99,,,0.00,weatherlink.com 1.10,2013-01-22 23:18:00,
2013-01-22 16:33:00,65.7,47.0,30.24,SSW,205,0.0,-999.0,51,-99.99,,,0.00,weatherlink.com 1.10,2013-01-22 23:33:00,
2013-01-22 16:48:00,65.0,47.0,30.24,South,169,3.0,-999.0,52,-99.99,,,0.00,weatherlink.com 1.10,2013-01-22 23:48:00,
2013-01-22 17:03:00,64.2,47.0,30.24,SSE,167,0.0,-999.0,53,-99.99,,,0.00,weatherlink.com 1.10,2013-01-23 00:03:00,
2013-01-22 17:18:00,63.4,46.0,30.24,South,181,0.0,-999.0,54,-99.99,,,0.00,weatherlink.com 1.10,2013-01-23 00:18:00,
2013-01-22 17:33:00,62.6,46.0,30.24,South,188,2.0,-999.0,56,-99.99,,,0.00,weatherlink.com 1.10,2013-01-23 00:33:00,
2013-01-22 17:48:00,61.9,46.0,30.24,South,184,0.0,-999.0,57,-99.99,,,0.00,weatherlink.com 1.10,2013-01-23 00:48:00,
2013-01-22 18:03:00,61.1,46.0,30.24,SSE,147,0.0,-999.0,59,-99.99,,,0.00,weatherlink.com 1.10,2013-01-23 01:03:00,
2013-01-22 18:18:00,60.6,46.0,30.24,South,173,1.0,-999.0,60,-99.99,,,0.00,weatherlink.com 1.10,2013-01-23 01:18:00,
2013-01-22 18:33:00,60.0,46.0,30.24,SSW,192,1.0,-999.0,60,-99.99,,,0.00,weatherlink.com 1.10,2013-01-23 01:33:00,
2013-01-22 18:48:00,59.1,46.0,30.24,South,191,0.0,-999.0,62,-99.99,,,0.00,weatherlink.com 1.10,2013-01-23 01:48:00,
2013-01-22 19:03:00,58.5,45.0,30.24,South,191,0.0,-999.0,62,-99.99,,,0.00,weatherlink.com 1.10,2013-01-23 02:03:00,
2013-01-22 19:18:00,57.2,45.0,30.25,South,191,0.0,-999.0,64,-99.99,,,0.00,weatherlink.com 1.10,2013-01-23 02:18:00,
2013-01-22 19:33:00,55.4,45.0,30.25,South,191,0.0,-999.0,67,-99.99,,,0.00,weatherlink.com 1.10,2013-01-23 02:33:00,
2013-01-22 19:48:00,54.1,44.0,30.25,South,191,0.0,-999.0,69,-99.99,,,0.00,weatherlink.com 1.10,2013-01-23 02:48:00,
2013-01-22 20:03:00,52.4,43.0,30.26,South,191,0.0,-999.0,71,-99.99,,,0.00,weatherlink.com 1.10,2013-01-23 03:03:00,
2013-01-22 20:18:00,51.2,43.0,30.26,South,191,0.0,-999.0,73,-99.99,,,0.00,weatherlink.com 1.10,2013-01-23 03:18:00,
2013-01-22 20:33:00,50.3,43.0,30.26,South,191,0.0,-999.0,75,-99.99,,,0.00,weatherlink.com 1.10,2013-01-23 03:33:00,
2013-01-22 20:48:00,49.4,42.0,30.27,South,191,0.0,-999.0,76,-99.99,,,0.00,weatherlink.com 1.10,2013-01-23 03:48:00,
2013-01-22 21:03:00,48.6,42.0,30.27,South,191,0.0,-999.0,77,-99.99,,,0.00,weatherlink.com 1.10,2013-01-23 04:03:00,
2013-01-22 21:18:00,48.1,42.0,30.28,South,191,0.0,-999.0,78,-99.99,,,0.00,weatherlink.com 1.10,2013-01-23 04:18:00,
2013-01-22 21:33:00,47.3,41.0,30.29,South,191,0.0,-999.0,79,-99.99,,,0.00,weatherlink.com 1.10,2013-01-23 04:33:00,
2013-01-22 21:48:00,46.8,41.0,30.29,South,191,0.0,-999.0,80,-99.99,,,0.00,weatherlink.com 1.10,2013-01-23 04:48:00,
2013-01-22 22:03:00,46.5,41.0,30.29,South,191,0.0,-999.0,81,-99.99,,,0.00,weatherlink.com 1.10,2013-01-23 05:03:00,
2013-01-22 22:18:00,46.4,41.0,30.29,South,191,0.0,-999.0,81,-99.99,,,0.00,weatherlink.com 1.10,2013-01-23 05:18:00,
2013-01-22 22:33:00,46.1,41.0,30.30,South,191,0.0,-999.0,81,-99.99,,,0.00,weatherlink.com 1.10,2013-01-23 05:33:00,
2013-01-22 22:48:00,46.0,41.0,30.30,South,191,0.0,-999.0,82,-99.99,,,0.00,weatherlink.com 1.10,2013-01-23 05:48:00,
2013-01-22 23:03:00,45.7,41.0,30.30,South,191,0.0,-999.0,82,-99.99,,,0.00,weatherlink.com 1.10,2013-01-23 06:03:00,
2013-01-22 23:18:00,45.3,40.0,30.30,South,191,0.0,-999.0,81,-99.99,,,0.00,weatherlink.com 1.10,2013-01-23 06:18:00,
2013-01-22 23:33:00,45.4,41.0,30.30,South,191,0.0,-999.0,83,-99.99,,,0.00,weatherlink.com 1.10,2013-01-23 06:33:00,
2013-01-22 23:48:00,45.6,41.0,30.30,South,191,0.0,-999.0,84,-99.99,,,0.00,weatherlink.com 1.10,2013-01-23 06:48:00,